| time (UTC) | temp C | wind direction | speed KPH | gust KPH | rain 1hr cm | rain 24hr cm | rain mn cm | humidity % | barometer mb |
| 20260506150115 | 11 | 292 | 9.7 | 22.5 | 0.00 | 0.74 | 0.74 | 63 | 1010.0 |
| 20260506145612 | 11 | 290 | 11.3 | 17.7 | 0.00 | 0.74 | 0.74 | 61 | 1009.7 |
| 20260506145108 | 11 | 325 | 9.7 | 16.1 | 0.00 | 0.74 | 0.74 | 63 | 1009.9 |
| 20260506144605 | 11 | 333 | 6.4 | 16.1 | 0.00 | 0.74 | 0.74 | 65 | 1009.8 |
| 20260506144102 | 11 | 329 | 6.4 | 9.7 | 0.00 | 0.74 | 0.74 | 66 | 1009.6 |
| 20260506143600 | 11 | 263 | 6.4 | 12.9 | 0.00 | 0.74 | 0.74 | 63 | 1009.6 |
| 20260506143058 | 11 | 359 | 9.7 | 22.5 | 0.00 | 0.74 | 0.74 | 67 | 1009.4 |
| 20260506142556 | 11 | 277 | 11.3 | 14.5 | 0.00 | 0.74 | 0.74 | 68 | 1009.4 |
| 20260506142054 | 11 | 291 | 9.7 | 12.9 | 0.00 | 0.74 | 0.74 | 68 | 1009.6 |
| 20260506141551 | 11 | 293 | 9.7 | 20.9 | 0.00 | 0.74 | 0.74 | 69 | 1009.7 |
| 20260506141049 | 11 | 286 | 11.3 | 14.5 | 0.00 | 0.74 | 0.74 | 72 | 1009.2 |
| 20260506140547 | 10 | 252 | 11.3 | 16.1 | 0.00 | 0.74 | 0.74 | 73 | 1009.5 |
| 20260506140044 | 10 | 290 | 11.3 | 14.5 | 0.00 | 0.74 | 0.74 | 74 | 1009.6 |
| 20260506135541 | 10 | 264 | 3.2 | 9.7 | 0.00 | 0.74 | 0.74 | 76 | 1009.6 |
| 20260506135037 | 10 | 283 | 9.7 | 14.5 | 0.00 | 0.74 | 0.74 | 80 | 1009.5 |
| 20260506134533 | 9 | 236 | 6.4 | 9.7 | 0.00 | 0.74 | 0.74 | 83 | 1009.7 |
| 20260506134029 | 9 | 300 | 9.7 | 11.3 | 0.00 | 0.74 | 0.74 | 82 | 1009.1 |
| 20260506133527 | 8 | 273 | 11.3 | 14.5 | 0.00 | 0.74 | 0.74 | 83 | 1009.4 |
| 20260506133024 | 8 | 292 | 11.3 | 14.5 | 0.00 | 0.74 | 0.74 | 84 | 1009.3 |
| 20260506132521 | 8 | 225 | 8.0 | 11.3 | 0.00 | 0.74 | 0.74 | 85 | 1009.3 |
| 20260506132018 | 8 | 271 | 6.4 | 9.7 | 0.00 | 0.74 | 0.74 | 85 | 1009.1 |
| 20260506131515 | 8 | 231 | 11.3 | 12.9 | 0.00 | 0.74 | 0.74 | 86 | 1009.2 |
| 20260506131011 | 8 | 257 | 8.0 | 12.9 | 0.00 | 0.74 | 0.74 | 85 | 1009.0 |
| 20260506130508 | 8 | 264 | 9.7 | 12.9 | 0.00 | 0.74 | 0.74 | 86 | 1009.0 |
| 20260506130006 | 8 | 284 | 9.7 | 12.9 | 0.00 | 0.74 | 0.74 | 85 | 1009.2 |
| 20260506125504 | 7 | 269 | 8.0 | 12.9 | 0.00 | 0.74 | 0.74 | 86 | 1009.1 |
| 20260506125001 | 7 | 266 | 6.4 | 6.4 | 0.00 | 0.74 | 0.74 | 87 | 1008.9 |
| 20260506124459 | 7 | 234 | 8.0 | 9.7 | 0.00 | 0.74 | 0.74 | 86 | 1008.9 |
| 20260506123957 | 7 | 273 | 8.0 | 12.9 | 0.00 | 0.74 | 0.74 | 87 | 1008.6 |
| 20260506123454 | 7 | 275 | 6.4 | 11.3 | 0.00 | 0.74 | 0.74 | 88 | 1008.7 |
| 20260506122952 | 7 | 271 | 6.4 | 12.9 | 0.00 | 0.74 | 0.74 | 88 | 1008.6 |
| 20260506122449 | 7 | 271 | 9.7 | 12.9 | 0.00 | 0.74 | 0.74 | 88 | 1008.6 |
| 20260506121947 | 7 | 285 | 9.7 | 11.3 | 0.00 | 0.74 | 0.74 | 90 | 1008.5 |
| 20260506121444 | 7 | 232 | 4.8 | 6.4 | 0.00 | 0.74 | 0.74 | 90 | 1008.4 |
| 20260506120940 | 7 | 260 | 8.0 | 12.9 | 0.00 | 0.74 | 0.74 | 90 | 1008.5 |
| 20260506120438 | 7 | 240 | 6.4 | 6.4 | 0.00 | 0.74 | 0.74 | 90 | 1008.3 |
| 20260506115935 | 7 | 244 | 4.8 | 6.4 | 0.00 | 0.74 | 0.74 | 90 | 1008.2 |
| 20260506115433 | 7 | 261 | 6.4 | 6.4 | 0.00 | 0.74 | 0.74 | 90 | 1008.3 |
| 20260506114931 | 7 | 250 | 4.8 | 4.8 | 0.00 | 0.74 | 0.74 | 90 | 1008.0 |
| 20260506114428 | 7 | 246 | 4.8 | 6.4 | 0.00 | 0.74 | 0.74 | 90 | 1008.4 |
| 20260506113927 | 7 | 248 | 8.0 | 11.3 | 0.00 | 0.74 | 0.74 | 90 | 1008.7 |
| 20260506113424 | 7 | 224 | 3.2 | 9.7 | 0.00 | 0.74 | 0.74 | 91 | 1008.3 |
| 20260506112921 | 7 | 242 | 6.4 | 9.7 | 0.00 | 0.74 | 0.74 | 92 | 1008.5 |
| 20260506112419 | 7 | 240 | 3.2 | 4.8 | 0.00 | 0.74 | 0.74 | 92 | 1008.4 |
| 20260506111916 | 6 | 245 | 9.7 | 12.9 | 0.00 | 0.74 | 0.74 | 92 | 1008.4 |
| 20260506111414 | 6 | 223 | 4.8 | 6.4 | 0.00 | 0.74 | 0.74 | 92 | 1008.0 |
| 20260506110910 | 6 | 244 | 4.8 | 9.7 | 0.00 | 0.74 | 0.74 | 93 | 1008.1 |
| 20260506110408 | 6 | 217 | 6.4 | 6.4 | 0.00 | 0.74 | 0.74 | 93 | 1007.8 |
| 20260506105904 | 6 | 222 | 4.8 | 4.8 | 0.00 | 0.74 | 0.74 | 93 | 1007.6 |
| 20260506105401 | 6 | 248 | 3.2 | 4.8 | 0.00 | 0.74 | 0.74 | 94 | 1007.6 |
| 20260506104858 | 6 | 248 | 3.2 | 4.8 | 0.00 | 0.74 | 0.74 | 94 | 1007.6 |
| 20260506104356 | 6 | 236 | 6.4 | 6.4 | 0.00 | 0.74 | 0.74 | 94 | 1007.5 |
| 20260506103853 | 6 | 236 | 3.2 | 3.2 | 0.00 | 0.74 | 0.74 | 94 | 1007.1 |
| 20260506103351 | 6 | 236 | 1.6 | 1.6 | 0.00 | 0.74 | 0.74 | 94 | 1006.9 |
| 20260506102848 | 6 | 236 | 0.0 | 1.6 | 0.00 | 0.74 | 0.74 | 95 | 1006.8 |
| 20260506102346 | 6 | 235 | 1.6 | 1.6 | 0.00 | 0.74 | 0.74 | 94 | 1006.8 |
| 20260506101843 | 6 | 235 | 0.0 | 1.6 | 0.00 | 0.74 | 0.74 | 94 | 1006.8 |
| 20260506101339 | 6 | 235 | 1.6 | 3.2 | 0.00 | 0.74 | 0.74 | 94 | 1006.9 |
| 20260506100837 | 6 | 236 | 3.2 | 3.2 | 0.00 | 0.74 | 0.74 | 94 | 1007.0 |
| 20260506100335 | 6 | 236 | 3.2 | 3.2 | 0.00 | 0.74 | 0.74 | 94 | 1007.1 |
| 20260506095833 | 6 | 236 | 1.6 | 1.6 | 0.00 | 0.74 | 0.74 | 94 | 1006.8 |
| 20260506095330 | 6 | 236 | 0.0 | 1.6 | 0.00 | 0.74 | 0.74 | 94 | 1006.8 |
| 20260506094827 | 6 | 237 | 0.0 | 4.8 | 0.00 | 0.74 | 0.74 | 94 | 1007.0 |
| 20260506094326 | 6 | 249 | 3.2 | 6.4 | 0.00 | 0.74 | 0.74 | 94 | 1007.5 |
| 20260506093823 | 6 | 275 | 6.4 | 9.7 | 0.00 | 0.74 | 0.74 | 94 | 1007.6 |
| 20260506093320 | 6 | 224 | 4.8 | 4.8 | 0.00 | 0.74 | 0.74 | 94 | 1007.5 |
| 20260506092818 | 6 | 264 | 3.2 | 4.8 | 0.00 | 0.74 | 0.74 | 94 | 1007.1 |
| 20260506092315 | 6 | 261 | 3.2 | 4.8 | 0.13 | 0.74 | 0.74 | 94 | 1006.7 |
| 20260506091812 | 6 | 243 | 3.2 | 3.2 | 0.13 | 0.74 | 0.74 | 94 | 1007.2 |
| 20260506091310 | 6 | 243 | 1.6 | 1.6 | 0.00 | 0.71 | 0.71 | 93 | 1006.8 |
| 20260506090808 | 6 | 243 | 1.6 | 1.6 | 0.18 | 0.71 | 0.71 | 93 | 1006.9 |
| 20260506090304 | 6 | 243 | 1.6 | 1.6 | 0.18 | 0.71 | 0.71 | 93 | 1006.9 |
| 20260506085801 | 6 | 243 | 1.6 | 3.2 | 0.00 | 0.69 | 0.69 | 93 | 1007.4 |
| 20260506085257 | 6 | 281 | 1.6 | 1.6 | 0.00 | 0.69 | 0.69 | 93 | 1007.4 |
| 20260506084754 | 6 | 281 | 3.2 | 3.2 | 0.00 | 0.69 | 0.69 | 94 | 1007.4 |
| 20260506084250 | 6 | 281 | 3.2 | 3.2 | 0.00 | 0.69 | 0.69 | 94 | 1007.4 |
| 20260506083747 | 6 | 281 | 0.0 | 1.6 | 0.00 | 0.69 | 0.69 | 94 | 1007.5 |
| 20260506083245 | 6 | 281 | 3.2 | 3.2 | 0.00 | 0.69 | 0.69 | 94 | 1007.4 |
| 20260506082742 | 6 | 281 | 1.6 | 1.6 | 0.00 | 0.69 | 0.69 | 94 | 1007.2 |
| 20260506082237 | 6 | 281 | 1.6 | 1.6 | 0.13 | 0.69 | 0.69 | 94 | 1007.1 |
| 20260506081736 | 6 | 281 | 0.0 | 0.0 | 0.13 | 0.69 | 0.69 | 94 | 1006.9 |
| 20260506081233 | 6 | 281 | 0.0 | 0.0 | 0.00 | 0.66 | 0.66 | 93 | 1006.6 |
| 20260506080731 | 6 | 281 | 0.0 | 1.6 | 0.00 | 0.66 | 0.66 | 93 | 1006.9 |
| 20260506080227 | 6 | 281 | 1.6 | 1.6 | 0.18 | 0.66 | 0.66 | 92 | 1006.9 |
| 20260506073211 | 7 | 282 | 0.0 | 1.6 | 0.00 | 0.58 | 0.58 | 90 | 1007.4 |
| 20260506072708 | 7 | 282 | 1.6 | 3.2 | 0.13 | 0.58 | 0.58 | 91 | 1007.6 |
| 20260506072206 | 7 | 278 | 3.2 | 3.2 | 0.13 | 0.58 | 0.58 | 91 | 1007.5 |
| 20260506071703 | 7 | 256 | 0.0 | 3.2 | 0.00 | 0.56 | 0.56 | 92 | 1007.5 |
| 20260506071201 | 7 | 230 | 3.2 | 3.2 | 0.18 | 0.56 | 0.56 | 93 | 1007.2 |
| 20260506070657 | 7 | 282 | 3.2 | 3.2 | 0.18 | 0.56 | 0.56 | 94 | 1007.1 |
| 20260506070154 | 7 | 348 | 4.8 | 6.4 | 0.00 | 0.53 | 0.53 | 95 | 1006.7 |
| 20260506062131 | 8 | 321 | 6.4 | 9.7 | 0.13 | 0.46 | 0.46 | 96 | 1007.0 |
| 20260506061627 | 8 | 328 | 8.0 | 11.3 | 0.13 | 0.46 | 0.46 | 96 | 1007.0 |
| 20260506061125 | 8 | 343 | 9.7 | 12.9 | 0.18 | 0.43 | 0.43 | 96 | 1006.8 |
| 20260506060623 | 8 | 336 | 9.7 | 14.5 | 0.18 | 0.43 | 0.43 | 97 | 1006.7 |
| 20260506060120 | 8 | 317 | 3.2 | 6.4 | 0.13 | 0.41 | 0.41 | 97 | 1006.6 |
| 20260506051052 | 8 | 249 | 3.2 | 3.2 | 0.00 | 0.25 | 0.25 | 97 | 1007.0 |
| 20260506050550 | 8 | 254 | 3.2 | 3.2 | 0.13 | 0.25 | 0.25 | 97 | 1007.1 |
| 20260506045040 | 8 | 230 | 0.0 | 1.6 | 0.30 | 0.23 | 0.23 | 97 | 1007.1 |
| 20260506044538 | 8 | 223 | 3.2 | 4.8 | 0.30 | 0.20 | 0.20 | 97 | 1007.2 |
| 20260506044035 | 8 | 209 | 0.0 | 3.2 | 0.48 | 0.18 | 0.18 | 97 | 1007.2 |
| 20260506043532 | 8 | 208 | 1.6 | 1.6 | 0.13 | 0.13 | 0.13 | 97 | 1007.3 |
| 20260506043030 | 8 | 208 | 0.0 | 1.6 | 0.18 | 0.10 | 0.10 | 96 | 1007.2 |
| 20260506042529 | 8 | 208 | 3.2 | 3.2 | 0.30 | 0.10 | 0.10 | 96 | 1007.2 |
| 20260506042027 | 8 | 204 | 1.6 | 1.6 | 0.18 | 0.05 | 0.05 | 96 | 1007.3 |
| 20260506041525 | 8 | 204 | 1.6 | 1.6 | 0.30 | 0.05 | 0.05 | 96 | 1007.1 |
| 20260506041021 | 8 | 204 | 0.0 | 0.0 | 0.30 | 0.03 | 0.03 | 96 | 1007.4 |
| 20260506040519 | 8 | 205 | 4.8 | 4.8 | 0.18 | 0.00 | 0.00 | 96 | 1007.2 |
| 20260506040015 | 8 | 202 | 3.2 | 3.2 | 0.13 | 2.72 | 2.72 | 96 | 1007.4 |
| 20260506035512 | 8 | 203 | 3.2 | 3.2 | 0.13 | 2.72 | 2.72 | 96 | 1007.5 |
| 20260506035009 | 8 | 201 | 0.0 | 0.0 | 0.18 | 2.69 | 2.69 | 96 | 1007.3 |
| 20260506034507 | 8 | 201 | 0.0 | 1.6 | 0.30 | 2.69 | 2.69 | 96 | 1007.1 |
| 20260506034003 | 8 | 203 | 0.0 | 0.0 | 0.13 | 2.67 | 2.67 | 96 | 1007.1 |
| 20260506033501 | 8 | 203 | 0.0 | 3.2 | 0.18 | 2.64 | 2.64 | 96 | 1007.3 |
| 20260506032957 | 8 | 203 | 0.0 | 1.6 | 0.13 | 2.62 | 2.62 | 96 | 1007.5 |
| 20260506032455 | 8 | 204 | 1.6 | 4.8 | 0.30 | 2.62 | 2.62 | 96 | 1007.7 |
| 20260506031951 | 8 | 195 | 1.6 | 3.2 | 0.36 | 2.59 | 2.59 | 96 | 1007.7 |
| 20260506031449 | 8 | 197 | 3.2 | 4.8 | 0.30 | 2.54 | 2.54 | 96 | 1007.7 |
| 20260506030946 | 8 | 197 | 1.6 | 3.2 | 0.30 | 2.51 | 2.51 | 96 | 1007.6 |
| 20260506030444 | 8 | 226 | 1.6 | 3.2 | 0.30 | 2.49 | 2.49 | 96 | 1007.6 |
| 20260506025940 | 8 | 201 | 4.8 | 4.8 | 0.30 | 2.46 | 2.46 | 96 | 1007.9 |
| 20260506025437 | 8 | 185 | 3.2 | 4.8 | 0.30 | 2.44 | 2.44 | 96 | 1007.8 |
| 20260506024934 | 8 | 190 | 3.2 | 4.8 | 0.30 | 2.41 | 2.41 | 96 | 1007.9 |
| 20260506024431 | 8 | 199 | 4.8 | 9.7 | 0.30 | 2.39 | 2.39 | 96 | 1008.1 |
| 20260506023926 | 8 | 196 | 3.2 | 4.8 | 0.30 | 2.36 | 2.36 | 95 | 1007.8 |
| 20260506023424 | 8 | 183 | 1.6 | 3.2 | 0.30 | 2.31 | 2.31 | 95 | 1008.1 |
| 20260506022920 | 8 | 192 | 1.6 | 1.6 | 0.30 | 2.29 | 2.29 | 95 | 1007.7 |
| 20260506022418 | 8 | 220 | 4.8 | 4.8 | 0.36 | 2.26 | 2.26 | 95 | 1008.1 |
| 20260506021916 | 8 | 237 | 4.8 | 6.4 | 0.48 | 2.24 | 2.24 | 95 | 1008.0 |
| 20260506021413 | 8 | 234 | 1.6 | 3.2 | 0.48 | 2.18 | 2.18 | 95 | 1007.9 |
| 20260506020910 | 8 | 234 | 3.2 | 3.2 | 0.30 | 2.16 | 2.16 | 95 | 1007.6 |
| 20260506020408 | 8 | 233 | 3.2 | 3.2 | 0.13 | 2.11 | 2.11 | 95 | 1007.7 |
| 20260506015904 | 8 | 223 | 3.2 | 4.8 | 0.18 | 2.08 | 2.08 | 95 | 1007.6 |
| 20260506015402 | 8 | 226 | 4.8 | 4.8 | 0.30 | 2.08 | 2.08 | 95 | 1007.5 |
| 20260506014859 | 8 | 242 | 4.8 | 4.8 | 0.30 | 2.06 | 2.06 | 95 | 1007.7 |
| 20260506014356 | 8 | 231 | 3.2 | 4.8 | 0.30 | 2.03 | 2.03 | 95 | 1007.5 |
| 20260506013852 | 8 | 250 | 3.2 | 4.8 | 0.13 | 2.01 | 2.01 | 95 | 1007.6 |
| 20260506013350 | 8 | 255 | 3.2 | 4.8 | 0.18 | 1.98 | 1.98 | 95 | 1007.3 |
| 20260506012846 | 8 | 256 | 3.2 | 3.2 | 0.00 | 1.96 | 1.96 | 95 | 1007.5 |
| 20260506012343 | 8 | 255 | 1.6 | 3.2 | 0.18 | 1.96 | 1.96 | 95 | 1007.1 |
| 20260506011840 | 8 | 255 | 1.6 | 1.6 | 0.18 | 1.96 | 1.96 | 95 | 1007.0 |
| 20260506011337 | 8 | 255 | 1.6 | 3.2 | 0.00 | 1.93 | 1.93 | 95 | 1006.9 |
| 20260506010834 | 8 | 254 | 1.6 | 1.6 | 0.13 | 1.93 | 1.93 | 95 | 1006.8 |
| 20260506010332 | 8 | 254 | 1.6 | 3.2 | 0.13 | 1.93 | 1.93 | 95 | 1006.9 |
| 20260506005829 | 8 | 254 | 1.6 | 1.6 | 0.18 | 1.91 | 1.91 | 95 | 1007.0 |
| 20260506005326 | 8 | 255 | 1.6 | 1.6 | 0.18 | 1.91 | 1.91 | 95 | 1006.9 |
| 20260506004822 | 8 | 252 | 1.6 | 1.6 | 0.00 | 1.88 | 1.88 | 95 | 1007.0 |
| 20260506004319 | 8 | 252 | 3.2 | 3.2 | 0.13 | 1.88 | 1.88 | 95 | 1006.9 |
| 20260506003815 | 8 | 246 | 1.6 | 3.2 | 0.00 | 1.85 | 1.85 | 95 | 1007.0 |
| 20260506003312 | 9 | 260 | 4.8 | 6.4 | 0.18 | 1.85 | 1.85 | 95 | 1007.1 |
| 20260506002808 | 9 | 268 | 3.2 | 6.4 | 0.18 | 1.85 | 1.85 | 95 | 1007.2 |
| 20260506002306 | 10 | 233 | 6.4 | 6.4 | 0.00 | 1.83 | 1.83 | 96 | 1007.1 |
| 20260506001800 | 9 | 275 | 0.0 | 1.6 | 0.13 | 1.83 | 1.83 | 96 | 1007.1 |
| 20260506001258 | 9 | 275 | 0.0 | 1.6 | 0.13 | 1.83 | 1.83 | 96 | 1007.2 |
| 20260506000755 | 9 | 275 | 0.0 | 0.0 | 0.00 | 1.80 | 1.80 | 96 | 1007.2 |
| 20260506000254 | 9 | 276 | 0.0 | 0.0 | 0.18 | 1.80 | 1.80 | 95 | 1007.0 |
| 20260505235749 | 9 | 276 | 1.6 | 3.2 | 0.13 | 1.78 | 1.78 | 95 | 1007.1 |
| 20260505235247 | 9 | 306 | 0.0 | 3.2 | 0.30 | 1.78 | 1.78 | 95 | 1007.0 |
| 20260505234743 | 9 | 304 | 1.6 | 3.2 | 0.18 | 1.75 | 1.75 | 95 | 1007.0 |
| 20260505234241 | 10 | 324 | 4.8 | 4.8 | 0.13 | 1.73 | 1.73 | 95 | 1006.6 |
| 20260505233737 | 10 | 313 | 1.6 | 3.2 | 0.30 | 1.73 | 1.73 | 95 | 1006.4 |
| 20260505233236 | 10 | 325 | 4.8 | 6.4 | 0.18 | 1.70 | 1.70 | 95 | 1006.5 |
| 20260505232732 | 10 | 353 | 6.4 | 9.7 | 0.13 | 1.68 | 1.68 | 95 | 1006.6 |
| 20260505232230 | 10 | 340 | 6.4 | 4.8 | 0.13 | 1.68 | 1.68 | 95 | 1006.5 |
| 20260505231726 | 10 | 355 | 6.4 | 6.4 | 0.18 | 1.65 | 1.65 | 95 | 1006.6 |
| 20260505231226 | 10 | 334 | 4.8 | 6.4 | 0.36 | 1.65 | 1.65 | 95 | 1006.7 |
| 20260505230723 | 10 | 328 | 4.8 | 11.3 | 0.18 | 1.63 | 1.63 | 95 | 1006.5 |
| 20260505230219 | 10 | 331 | 6.4 | 9.7 | 0.00 | 1.60 | 1.60 | 95 | 1006.6 |
| 20260505225716 | 10 | 351 | 6.4 | 6.4 | 0.00 | 1.60 | 1.60 | 94 | 1006.5 |
| 20260505225213 | 10 | 15 | 4.8 | 9.7 | 0.13 | 1.60 | 1.60 | 94 | 1006.3 |
| 20260505224708 | 10 | 317 | 4.8 | 11.3 | 0.13 | 1.60 | 1.60 | 94 | 1006.9 |
| 20260505224206 | 10 | 359 | 3.2 | 4.8 | 0.00 | 1.57 | 1.57 | 95 | 1006.7 |
| 20260505223704 | 10 | 328 | 3.2 | 3.2 | 0.00 | 1.57 | 1.57 | 95 | 1006.6 |
| 20260505223159 | 10 | 6 | 1.6 | 3.2 | 0.00 | 1.57 | 1.57 | 95 | 1006.9 |
| 20260505222656 | 10 | 220 | 0.0 | 0.0 | 0.18 | 1.57 | 1.57 | 95 | 1006.9 |
| 20260505222152 | 10 | 220 | 0.0 | 0.0 | 0.48 | 1.57 | 1.57 | 95 | 1006.8 |
| 20260505221649 | 10 | 219 | 1.6 | 1.6 | 0.30 | 1.55 | 1.55 | 94 | 1006.9 |
| 20260505221146 | 10 | 136 | 3.2 | 3.2 | 0.30 | 1.50 | 1.50 | 94 | 1007.4 |
| 20260505220643 | 10 | 134 | 1.6 | 1.6 | 0.61 | 1.50 | 1.50 | 94 | 1007.0 |
| 20260505220141 | 10 | 245 | 1.6 | 1.6 | 0.61 | 1.45 | 1.45 | 94 | 1006.8 |
| 20260505215638 | 10 | 17 | 1.6 | 1.6 | 0.61 | 1.40 | 1.40 | 94 | 1006.8 |
| 20260505215136 | 10 | 5 | 4.8 | 11.3 | 0.79 | 1.35 | 1.35 | 94 | 1006.7 |
| 20260505214634 | 10 | 357 | 6.4 | 6.4 | 0.61 | 1.27 | 1.27 | 94 | 1006.5 |
| 20260505214131 | 10 | 279 | 4.8 | 9.7 | 0.71 | 1.22 | 1.22 | 94 | 1006.7 |
| 20260505213628 | 10 | 246 | 1.6 | 3.2 | 1.02 | 1.17 | 1.17 | 93 | 1006.2 |
| 20260505213125 | 10 | 260 | 3.2 | 3.2 | 0.79 | 1.07 | 1.07 | 93 | 1006.3 |
| 20260505212620 | 10 | 247 | 6.4 | 6.4 | 0.66 | 0.99 | 0.99 | 93 | 1006.6 |
| 20260505212119 | 10 | 230 | 3.2 | 4.8 | 0.30 | 0.91 | 0.91 | 93 | 1006.4 |
| 20260505211615 | 10 | 246 | 3.2 | 4.8 | 0.30 | 0.89 | 0.89 | 92 | 1006.3 |
| 20260505211112 | 10 | 270 | 1.6 | 6.4 | 0.13 | 0.84 | 0.84 | 92 | 1006.0 |
| 20260505210609 | 10 | 266 | 3.2 | 9.7 | 0.18 | 0.81 | 0.81 | 92 | 1005.9 |
| 20260505210106 | 10 | 225 | 4.8 | 6.4 | 0.18 | 0.81 | 0.81 | 91 | 1005.9 |
| 20260505205604 | 10 | 264 | 3.2 | 9.7 | 0.13 | 0.79 | 0.79 | 91 | 1006.2 |
| 20260505205101 | 11 | 268 | 0.0 | 1.6 | 0.30 | 0.79 | 0.79 | 92 | 1006.0 |
| 20260505204558 | 10 | 332 | 6.4 | 9.7 | 0.18 | 0.76 | 0.76 | 91 | 1006.0 |
| 20260505204056 | 11 | 282 | 3.2 | 6.4 | 0.13 | 0.74 | 0.74 | 92 | 1006.4 |
| 20260505203552 | 11 | 264 | 3.2 | 11.3 | 0.30 | 0.74 | 0.74 | 91 | 1006.5 |
| 20260505203049 | 11 | 288 | 9.7 | 9.7 | 0.00 | 0.69 | 0.69 | 91 | 1006.5 |
| 20260505202545 | 11 | 282 | 9.7 | 16.1 | 0.18 | 0.69 | 0.69 | 91 | 1006.6 |
| 20260505202041 | 11 | 278 | 11.3 | 17.7 | 0.30 | 0.69 | 0.69 | 92 | 1006.4 |
| 20260505201538 | 11 | 240 | 9.7 | 12.9 | 0.30 | 0.66 | 0.66 | 93 | 1006.5 |
| 20260505201036 | 12 | 314 | 6.4 | 12.9 | 0.18 | 0.64 | 0.64 | 93 | 1006.5 |
| 20260505200533 | 12 | 281 | 9.7 | 11.3 | 0.30 | 0.61 | 0.61 | 93 | 1006.7 |
| 20260505200030 | 12 | 276 | 8.0 | 11.3 | 0.30 | 0.61 | 0.61 | 93 | 1006.6 |
| 20260505195526 | 12 | 269 | 3.2 | 4.8 | 0.13 | 0.56 | 0.56 | 93 | 1006.8 |
| 20260505195024 | 12 | 262 | 6.4 | 11.3 | 0.30 | 0.53 | 0.53 | 93 | 1006.6 |
| 20260505194521 | 12 | 273 | 8.0 | 9.7 | 0.30 | 0.48 | 0.48 | 93 | 1006.8 |
| 20260505194016 | 13 | 273 | 6.4 | 9.7 | 0.48 | 0.48 | 0.48 | 93 | 1006.8 |
| 20260505193514 | 13 | 249 | 9.7 | 9.7 | 0.30 | 0.43 | 0.43 | 93 | 1006.7 |
| 20260505193011 | 13 | 234 | 8.0 | 9.7 | 0.13 | 0.41 | 0.41 | 92 | 1006.6 |
| 20260505192509 | 13 | 258 | 4.8 | 6.4 | 0.18 | 0.38 | 0.38 | 92 | 1006.4 |
| 20260505192007 | 13 | 243 | 9.7 | 12.9 | 0.18 | 0.36 | 0.36 | 92 | 1006.4 |
| 20260505191505 | 13 | 217 | 6.4 | 6.4 | 0.18 | 0.36 | 0.36 | 92 | 1006.3 |
| 20260505191002 | 13 | 239 | 6.4 | 6.4 | 0.13 | 0.33 | 0.33 | 91 | 1006.3 |
| 20260505190457 | 13 | 247 | 6.4 | 6.4 | 0.89 | 0.33 | 0.33 | 91 | 1006.0 |
| 20260505185952 | 13 | 227 | 4.8 | 4.8 | 0.61 | 0.28 | 0.28 | 91 | 1006.4 |
| 20260505185450 | 13 | 228 | 6.4 | 4.8 | 0.00 | 0.18 | 0.18 | 89 | 1006.2 |
| 20260505184946 | 13 | 228 | 6.4 | 4.8 | 0.00 | 0.18 | 0.18 | 89 | 1006.3 |
| 20260505184443 | 13 | 228 | 6.4 | 4.8 | 0.13 | 0.18 | 0.18 | 89 | 1006.0 |
| 20260505183939 | 13 | 229 | 6.4 | 11.3 | 0.30 | 0.18 | 0.18 | 89 | 1006.0 |
| 20260505183436 | 13 | 213 | 6.4 | 6.4 | 0.18 | 0.15 | 0.15 | 89 | 1006.3 |
| 20260505182933 | 14 | 229 | 4.8 | 6.4 | 0.30 | 0.13 | 0.13 | 89 | 1006.0 |
| 20260505182430 | 14 | 229 | 6.4 | 9.7 | 0.18 | 0.10 | 0.10 | 88 | 1006.3 |
| 20260505181926 | 14 | 220 | 6.4 | 6.4 | 0.13 | 0.08 | 0.08 | 87 | 1006.4 |
| 20260505181424 | 14 | 227 | 3.2 | 3.2 | 0.18 | 0.05 | 0.05 | 86 | 1006.3 |
| 20260505180921 | 14 | 242 | 8.0 | 11.3 | 0.18 | 0.05 | 0.05 | 84 | 1006.3 |
| 20260505180417 | 15 | 248 | 8.0 | 12.9 | 0.18 | 0.03 | 0.03 | 83 | 1005.9 |
| 20260505175914 | 15 | 258 | 11.3 | 12.9 | 0.18 | 0.03 | 0.03 | 81 | 1006.2 |
| 20260505175410 | 15 | 235 | 11.3 | 14.5 | 0.00 | 0.00 | 0.00 | 79 | 1006.0 |
| 20260505174906 | 15 | 205 | 12.9 | 16.1 | 0.00 | 0.00 | 0.00 | 76 | 1005.9 |
| 20260505174404 | 15 | 260 | 6.4 | 6.4 | 0.00 | 0.00 | 0.00 | 74 | 1006.0 |
| 20260505173900 | 15 | 235 | 12.9 | 14.5 | 0.00 | 0.00 | 0.00 | 73 | 1005.9 |
| 20260505173356 | 15 | 238 | 9.7 | 11.3 | 0.00 | 0.00 | 0.00 | 73 | 1006.0 |
| 20260505172853 | 16 | 211 | 22.5 | 25.7 | 0.00 | 0.00 | 0.00 | 72 | 1006.0 |
| 20260505172351 | 16 | 244 | 16.1 | 17.7 | 0.00 | 0.00 | 0.00 | 72 | 1006.2 |
| 20260505171851 | 16 | 239 | 17.7 | 20.9 | 0.00 | 0.00 | 0.00 | 72 | 1006.0 |
| 20260505171348 | 15 | 252 | 14.5 | 16.1 | 0.00 | 0.00 | 0.00 | 73 | 1005.9 |
| 20260505170844 | 15 | 240 | 8.0 | 9.7 | 0.00 | 0.00 | 0.00 | 72 | 1005.9 |
| 20260505170341 | 16 | 248 | 17.7 | 27.4 | 0.00 | 0.00 | 0.00 | 72 | 1006.0 |
| 20260505165836 | 16 | 226 | 24.1 | 25.7 | 0.00 | 0.00 | 0.00 | 70 | 1006.2 |
| 20260505165332 | 16 | 265 | 24.1 | 29.0 | 0.00 | 0.00 | 0.00 | 70 | 1006.0 |
| 20260505164828 | 16 | 250 | 17.7 | 24.1 | 0.00 | 0.00 | 0.00 | 70 | 1006.0 |
| 20260505164325 | 16 | 244 | 19.3 | 25.7 | 0.00 | 0.00 | 0.00 | 70 | 1005.9 |
| 20260505163823 | 16 | 242 | 19.3 | 29.0 | 0.00 | 0.00 | 0.00 | 70 | 1006.3 |
| 20260505163322 | 16 | 247 | 19.3 | 27.4 | 0.00 | 0.00 | 0.00 | 70 | 1005.8 |
| 20260505162820 | 16 | 266 | 20.9 | 24.1 | 0.00 | 0.00 | 0.00 | 70 | 1006.0 |
| 20260505162316 | 16 | 215 | 14.5 | 29.0 | 0.00 | 0.00 | 0.00 | 70 | 1006.0 |
| 20260505161813 | 16 | 239 | 24.1 | 30.6 | 0.00 | 0.00 | 0.00 | 70 | 1005.9 |
| 20260505161310 | 16 | 257 | 20.9 | 24.1 | 0.00 | 0.00 | 0.00 | 71 | 1006.0 |
| 20260505160808 | 16 | 267 | 16.1 | 25.7 | 0.00 | 0.00 | 0.00 | 71 | 1006.2 |
| 20260505160306 | 16 | 229 | 19.3 | 33.8 | 0.00 | 0.00 | 0.00 | 70 | 1006.2 |
| 20260505153244 | 16 | 248 | 30.6 | 35.4 | 0.00 | 0.00 | 0.00 | 69 | 1005.9 |
| 20260505152742 | 16 | 267 | 27.4 | 37.0 | 0.00 | 0.00 | 0.00 | 68 | 1006.2 |
| 20260505152238 | 17 | 240 | 11.3 | 20.9 | 0.00 | 0.00 | 0.00 | 68 | 1005.8 |
| 20260505151738 | 17 | 240 | 27.4 | 43.5 | 0.00 | 0.00 | 0.00 | 67 | 1005.6 |
| 20260505151235 | 17 | 229 | 27.4 | 33.8 | 0.00 | 0.00 | 0.00 | 66 | 1005.5 |
| 20260505150732 | 17 | 232 | 20.9 | 29.0 | 0.00 | 0.00 | 0.00 | 65 | 1005.4 |
| 20260505150229 | 18 | 260 | 16.1 | 27.4 | 0.00 | 0.00 | 0.00 | 64 | 1005.1 |